CZ-6A DEB, 60963

Orbit data source: Space-Track

CZ-6A DEB, 60963 is space debris in LEO originally from a launch on Tue, 06 Aug 2024 UTC launched from the Taiyaun Space Center, China (TSC). Debris objects in space refer to the collection of defunct objects orbiting the Earth. Examples of debris include non-operational satellites, rocket bodies, and fragments generated from explosions, collisions, or faulty payload assembly.

Loading next visibility...
Identifier
60963, 2024-140LN
Orbit
LEO
Country
Flag of CNCN / PRC
Related business
Manufacturer
SAST
Mission
Spacecraft
Bus & Motor
Unknown
Mass
Unknown
Launch date (UTC)
2024-08-06 (2 years ago)
Launch vehicle
Unknown
Launch site
Taiyaun Space Center, China (TSC)
Object type
Payload
Rocket body
Debris
Shape & HBR
Unknown shape, 0.2 m
Radar Cross Section
Medium (>0.1 m² and <1 m²)

Expand to show TLE details & history
Last TLE update: 16 hours ago

TLE from 16 hours ago
0 CZ-6A DEB
1 60963U 24140LN  26171.29231176  .00000609  00000-0  13594-3 0  9993
2 60963  89.0207 271.8080 0103733 257.1550 101.8053 14.52280227 98075
Epoch: 2026-06-20T07:00Z
TLE epoch observation values (Epoch: 2026-06-20T07:00:55.736Z)
Latitude
Longitude
-101.93326°
Altitude
737.103 km
Speed
7.478 km/s
True Right ascension
18h 07m 13s
True Declination
0° 00' 00"
Sunlit
Object was in full shadow at epoch
Visualization orbit readout
Latitude
Unknown
Longitude
Unknown
Altitude
Unknown
Speed
Unknown
Apparent Right ascension
Unknown
Apparent Declination
Unknown
Sunlit
N/A
Visualization observer readout
Local Sidereal Time
10:18:52
Azimuth
Unknown
Elevation
Unknown
Doppler factor
Unknown
Orbital elements
Apogee altitude
788.696 km
Perigee altitude
641.535 km
Semi-major axis
7,093.252 km
Eccentricity
0.01037
Inclination
89.0207°
RAAN
271.808°
Arg. of periapsis
257.155°
True anomaly
102.96569°
Mean anomaly
101.8053°
Eccentric anomaly
102.38581°
Mean motion
3.63308 °/min
Orbital period
99.09 mins
BSTAR
0.00013594
Loading maneuver chart data...
Computing Atmospheric mass density...
Loading historical data...
Loading historical data...
Loading historical data...
Loading historical data...
Loading historical data...
Loading historical data...
Loading historical data...

Documentation

Showing up to 5 results
|